Sarasota, FL

11:08 PM EDT on June 26, 2017 (GMT -0400)
Sarasota-bradenton

Weather History for KSRQ - January, 2008

Change the Weather History Date:

Wednesday, January 16, 2008

  Actual Average Record
Temperature  
Mean Temperature 64 °F 61 °F  
Max Temperature 76 °F 71 °F 82 °F (1947)
Min Temperature 51 °F 52 °F 26 °F (1927)
Degree Days  
Heating Degree Days 1 5  
Month to date heating degree days 69 89  
Since 1 July heating degree days 123 244  
Cooling Degree Days 0 2  
Month to date cooling degree days 29 32  
Year to date cooling degree days 29 32  
Growing Degree Days 12 (Base 50)    
Moisture  
Dew Point 45 °F    
Average Humidity 53    
Maximum Humidity 68    
Minimum Humidity 44    
Precipitation  
Precipitation T in 0.06 in 2.73 in (1993)
Month to date precipitation 0.08 1.63  
Year to date precipitation 0.08 1.63  
Sea Level Pressure  
Sea Level Pressure 30.03 in    
Wind  
Wind Speed 15 mph (East)    
Max Wind Speed 26 mph    
Max Gust Speed 32 mph    
Visibility 10 miles    
Events      
T = Trace of Precipitation, MM = Missing Value Source: NWS Daily Summary

Daily Weather History Graph

Daily Weather History Graph

Search for Another Location

Airport or City:

Trip Planner

Search our weather history database for the weather conditions in past years. The results will help you decide how hot, cold, wet, or windy it might be!

Date:

Astronomy

Jan. 16, 2008 Rise Set
Actual Time 7:21 AM EST 5:58 PM EST
Civil Twilight 6:56 AM EST 6:23 PM EST
Nautical Twilight 6:27 AM EST 6:52 PM EST
Astronomical Twilight 5:59 AM EST 7:20 PM EST
Moon 12:23 PM EST (1/16) 1:14 AM EST (1/16)
Length of Visible Light 11h 26m
Length of Day
10h 36m
First Quarter, 60% of the Moon is Illuminated
Jan 16
First Quarter
Jan 22
Full
Jan 30
Last Quarter
Feb 6
New
Feb 13
First Quarter

Hourly Weather History & Observations

Time (EST) Temp. Dew Point Humidity Pressure Visibility Wind Dir Wind Speed Gust Speed Precip Events Conditions
12:53 AM 51.1 °F 33.1 °F 50% 30.12 in 10.0 mi NNE 8.1 mph - N/A   Clear
1:53 AM 52.0 °F 34.0 °F 50% 30.10 in 10.0 mi ENE 9.2 mph - N/A   Clear
2:53 AM 52.0 °F 35.1 °F 53% 30.10 in 10.0 mi NE 10.4 mph - N/A   Clear
3:53 AM 52.0 °F 35.1 °F 53% 30.12 in 10.0 mi NE 9.2 mph - N/A   Clear
4:53 AM 53.1 °F 34.0 °F 48% 30.12 in 10.0 mi NE 11.5 mph - N/A   Scattered Clouds
5:53 AM 52.0 °F 34.0 °F 50% 30.12 in 10.0 mi NE 9.2 mph - N/A   Scattered Clouds
6:53 AM 52.0 °F 34.0 °F 50% 30.11 in 10.0 mi ENE 9.2 mph - N/A   Scattered Clouds
7:53 AM 53.1 °F 36.0 °F 52% 30.10 in 10.0 mi ENE 12.7 mph - N/A   Scattered Clouds
8:53 AM 57.0 °F 39.9 °F 53% 30.11 in 10.0 mi ENE 13.8 mph - N/A   Mostly Cloudy
9:53 AM 61.0 °F 43.0 °F 52% 30.11 in 10.0 mi ENE 12.7 mph - N/A   Mostly Cloudy
10:53 AM 66.0 °F 46.0 °F 48% 30.09 in 10.0 mi East 17.3 mph - N/A   Mostly Cloudy
11:53 AM 71.1 °F 48.9 °F 45% 30.02 in 10.0 mi East 20.7 mph 29.9 mph N/A   Partly Cloudy
12:53 PM 73.9 °F 50.0 °F 43% 29.99 in 10.0 mi ESE 23.0 mph 28.8 mph N/A   Mostly Cloudy
1:53 PM 72.0 °F 50.0 °F 46% 29.95 in 10.0 mi ESE 21.9 mph - 0.00 in   Overcast
2:53 PM 72.0 °F 51.1 °F 48% 29.95 in 10.0 mi ESE 17.3 mph - N/A   Mostly Cloudy
3:53 PM 73.0 °F 51.1 °F 46% 29.94 in 10.0 mi ESE 15.0 mph - N/A   Overcast
4:53 PM 73.0 °F 52.0 °F 48% 29.94 in 10.0 mi ESE 19.6 mph 24.2 mph N/A   Partly Cloudy
5:53 PM 72.0 °F 52.0 °F 49% 29.94 in 10.0 mi ESE 16.1 mph - N/A   Mostly Cloudy
6:53 PM 70.0 °F 53.1 °F 55% 29.96 in 10.0 mi ESE 15.0 mph - N/A   Mostly Cloudy
7:53 PM 69.1 °F 53.1 °F 57% 29.96 in 10.0 mi ESE 19.6 mph 25.3 mph N/A   Clear
8:53 PM 68.0 °F 54.0 °F 61% 29.96 in 10.0 mi ESE 16.1 mph 24.2 mph N/A   Clear
9:53 PM 66.9 °F 55.0 °F 66% 29.96 in 10.0 mi ESE 19.6 mph - N/A   Clear
10:53 PM 66.9 °F 55.9 °F 68% 29.95 in 10.0 mi ESE 17.3 mph 24.2 mph N/A   Mostly Cloudy
11:53 PM 66.9 °F 57.0 °F 70% 29.92 in 10.0 mi ESE 16.1 mph - N/A   Scattered Clouds